Location: Go�ngahuizen
(53.0821°N, 5.8849°E)
Time: 18:05:49
(UTC+00:00)

Cosmos 2228 - Pass Details

Date: 09 April 2020
Orbit: 589 x 619 km, 82.5° (Epoch: 23 May)

Event Time Altitude Azimuth Distance (km) Brightness Sun altitude
Rises 19:07:55 0° 185° (S) 2,843 6.3 -6.7°
Reaches altitude 10° 19:10:06 10° 185° (S) 1,950 5.4 -7.0°
Maximum altitude 19:14:25 79° 99° (E) 628 3.0 -7.6°
Drops below altitude 10° 19:18:49 10° 13° (NNE) 1,984 5.8 -8.2°
Sets 19:21:03 0° 12° (NNE) 2,898 6.7 -8.5°
